Tracking 20719 objects as of 25-May-2020
HD Live streaming from Space Station
objects crossing your sky now

INSAT 3A

Track INSAT 3A now!
INSAT 3A is classified as:


NORAD ID: 27714
Int'l Code: 2003-013A
Perigee: 35,869.4 km
Apogee: 35,985.0 km
Inclination: 3.5 °
Period: 1,442.9 minutes
Semi major axis: 42298 km
RCS: 22.0529 m2 (large)
Launch date: April 9, 2003
Source: India (IND)
Launch site: FRENCH GUIANA (FRGUI)

12 C-band, 6 extended C-band, 6 Ku-band for voice, video and data transmission to West Asia, East Asia, India; augment present INSAT capacity for communication and meteorological services.
aabbcc
Your satellite tracking list
Your tracking list is empty




NASA's NSSDC Master Catalog

Two Line Element Set (TLE):
1 27714U 03013A   20144.80691601 -.00000080 +00000-0 +00000-0 0  9999
2 27714 003.5093 081.5573 0013668 280.8700 256.0178 00.99797612062615
Source of the keplerian elements: AFSPC